Regional Weather Roundup
Issued by NWS

Home | Current Version | Previous Version | Graphics & Text | Print | Product List | Glossary On
Versions: 1 2 3 4 5 6 7 8 9 10 11 12 13 14 15 16 17 18 19 20 21 22 23 24 25 26 27 28 29 30 31 32 33 34 35 36 37 38 39 40 41 42 43 44 45 46 47 48 49 50
000
ASUS43 KMPX 202301
RWRMN
WEATHER ROUNDUP FOR MINNESOTA
NATIONAL WEATHER SERVICE TWIN CITIES/CHANHASSEN MN
500 PM CST FRI JAN 20 2017


NOTE: "FAIR" INDICATES FEW OR NO CLOUDS BELOW 12,000 FEET WITH NO
SIGNIFICANT WEATHER AND/OR OBSTRUCTIONS TO VISIBILITY. N/A MEANS
CURRENT SKY AND/OR WEATHER CONDITIONS ARE NOT AVAILABLE.

MNZ060>063-068>070-210000-
   Twin Cities Metro

CITY           SKY/WX    TMP DP  RH WIND       PRES   REMARKS
TWIN CITIES    FOG       36  34  92 SE7       29.57R VSB 1
ST PAUL        CLOUDY    36  36 100 SE7       29.59R FOG
CRYSTAL        CLOUDY    36  33  89 SE6       29.57R FOG
BLAINE         FOG       37  37 100 SE6       29.57R VSB 1
LAKEVILLE        N/A     34  34 100 E5        29.56F FOG     WCI  30
EDEN PRAIRIE   CLOUDY    36  34  92 E7        29.54S FOG
SOUTH ST PAUL  FOG       36  36  99 CALM      29.57F VSB 1/2
LAKE ELMO      FOG       36  36 100 SE6       29.59S VSB 1/2
$$
MNZ001>005-007-008-013>017-022>024-027-028-210000-
   Northwest Minnesota

CITY           SKY/WX    TMP DP  RH WIND       PRES   REMARKS
BEMIDJI        CLOUDY    34  33  99 SE8       29.50S FOG     WCI  27
HALLOCK        DRIZZLE   36  36 100 SE7       29.47F
ROSEAU         DRIZZLE   37  32  81 E5        29.50S
WARROAD        DRIZZLE   36  32  87 E6        29.51S
THIEF RVR FALL CLOUDY    35  33  92 SE9       29.49S WCI  28
CROOKSTON      CLOUDY    36  36 100 SE7       29.47F
FOSSTON        CLOUDY    34  34 100 E6        29.49S WCI  29
DETROIT LAKES  CLOUDY    34  34 100 SE10      29.47S FOG     WCI  26
MOORHEAD       CLOUDY    36  34  93 SE10      29.45S
PARK RAPIDS    CLOUDY    35  32  88 SE10      29.49R FOG     WCI  27
MAHNOMEN       CLOUDY    35  33  92 SE6       29.47S WCI  30
$$
MNZ006-009>011-018-025>026-210000-
   North Central Minnesota

CITY           SKY/WX    TMP DP  RH WIND       PRES   REMARKS
BAUDETTE       LGT RAIN  36  35  96 SE8       29.52R FOG
FLAG ISLAND    DRIZZLE   36  36 100 CALM      29.52S
INTL FALLS     LGT RAIN  37  35  92 E7        29.56R
WASKISH        CLOUDY    37  36  93 E6        29.53R FOG
BIG FORK       LGT RAIN  36  34  93 SE5       29.54S
LONGVILLE      CLOUDY    36  34  93 SE3       29.53R FOG
GRAND RAPIDS   MIX PCPN  35  34  96 SE7       29.56S FOG     WCI  29
CRANE LAKE     DRIZZLE   36  34  93 CALM      29.60S
ORR            DRIZZLE   36  34  93 CALM      29.54S
COOK           LGT RAIN  36  36 100 SE3       29.56F
WALKER         CLOUDY    33  33  99 SE6       29.51R FOG     WCI  28
$$
MNZ012-019>021-037-210000-
   Northeast Minnesota

CITY           SKY/WX    TMP DP  RH WIND       PRES   REMARKS
DULUTH         SNOW      34  33  96 E10       29.57S VSB 1/2 WCI  26
ELY            LGT RAIN  36  34  93 SE7       29.58F
HIBBING        CLOUDY    33  33 100 SE7       29.55F WCI  27
EVELETH        DRIZZLE   35  34  96 E6        29.57F WCI  30
DULUTH HARBOR  MIX PCPN  34  34 100 NE13      29.61R WCI  25
TWO HARBORS    LGT RAIN  37  32  81 E9        29.58F
SILVER BAY     DRIZZLE   36  36 100 NE6       29.59F
GRAND MARAIS     N/A     36  35  96 NE6       29.66R
G MARAIS ARPRT LGT RAIN  34  28  80 SE5       29.63R WCI  30
$$
MNZ029>031-032-039>041-046>048-054>057-064-210000-
   West Central Minnesota

CITY           SKY/WX    TMP DP  RH WIND       PRES   REMARKS
FERGUS FALLS   CLOUDY    36  36 100 SE10      29.50S
WHEATON        CLOUDY    43  43 100 SE18      29.45S FOG
MORRIS         CLOUDY    36  34  93 SE13      29.46S FOG
ALEXANDRIA     CLOUDY    33  33 100 SE12      29.49S FOG     WCI  24
ELBOW LAKE     CLOUDY    34  34 100 SE10      29.46F FOG     WCI  26
WADENA         CLOUDY    34  34 100 SE6       29.49R FOG     WCI  29
GLENWOOD       FOG       34  34 100 E13       29.50S VSB<1/4 WCI  25
APPLETON       CLOUDY    36  34  93 SE13      29.46F FOG
BENSON         CLOUDY    37  34  87 S13       29.49S
ORTONVILLE     CLOUDY    36  34  93 SE14      29.44S FOG
MADISON        CLOUDY    37  37 100 SE15      29.45S FOG
WILLMAR        FOG       36  36 100 SE12      29.51S VSB 1/4
$$
MNZ033>034-036-042>043-049>051-058-059-210000-
   Central Minnesota

CITY           SKY/WX    TMP DP  RH WIND       PRES   REMARKS
ST CLOUD       FOG       35  35 100 SE8       29.54R VSB 1/4 WCI  29
SAUK CENTRE    FOG       33  33 100 E7        29.51S VSB 1/2 WCI  27
PAYNESVILLE    FOG       34  34 100 SE7       29.52S VSB 3/4 WCI  28
AITKIN         CLOUDY    37  34  87 SE5       29.54R FOG
PINE RIVER     CLOUDY    34  34 100 SE8       29.57R FOG     WCI  27
BRAINERD       CLOUDY    34  34 100 SE7       29.54R FOG     WCI  28
STAPLES        FOG       34  34 100 E5        29.51R VSB 3/4 WCI  30
LONG PRAIRIE   SNOW      32  32 100 E6        29.51R VSB 1/2 WCI  26
LITTLE FALLS   FOG       34  32  93 SE7       29.54R VSB 1/2 WCI  28
LITCHFIELD     FOG       36  36 100 SE9       29.53S VSB 1/4
BUFFALO        FOG       35  34  95 E3        29.57R VSB 1
MAPLE LAKE     FOG       36  36  99 MISG      29.56R VSB 3/4
HUTCHINSON     FOG       35  35 100 E6        29.53F VSB<1/4 WCI  30
$$
MNZ037-044-045-052-053-210000-
   East Central Minnesota

CITY           SKY/WX    TMP DP  RH WIND       PRES   REMARKS
PRINCETON      FOG       37  36  93 E5        29.56R VSB 1/2
MORA           CLOUDY    34  32  93 E5        29.58R FOG     WCI  30
CAMBRIDGE      FOG       37  36  93 E3        29.55S VSB 1/2
RUSH CITY      CLOUDY    36  34  93 SE5       29.58R FOG
MOOSE LAKE     CLOUDY    36  34  93 CALM      29.55S FOG
HINCKLEY       DRIZZLE   36  36 100 SE5       29.57S
CLOQUET        SNOW      34  34 100 E7        29.57R VSB 1/4 WCI  28
MCGREGOR       CLOUDY    36  34  93 SE5       29.56S
$$
MNZ071>073-080-081-089-090-097-098-210000-
   Southwest Minnesota

CITY           SKY/WX    TMP DP  RH WIND       PRES   REMARKS
MONTEVIDEO     CLOUDY    34  34 100 SE9       29.49S FOG     WCI  26
GRANITE FALLS  CLOUDY    37  36  96 E10       29.50S FOG
CANBY          CLOUDY    37  37  97 CALM      29.45S FOG
MARSHALL       CLOUDY    38  37  97 SE10      29.46F
REDWOOD FALLS  CLOUDY    36  34  92 SE10      29.50S
OLIVIA         FOG       34  34 100 E9        29.50S VSB 1/2 WCI  26
PIPESTONE      SNOW      37  37 100 S10       29.42S VSB<1/4
WINDOM         FOG       36  36 100 SE6       29.48S VSB 1
WORTHINGTON    CLOUDY    37  37 100 MISG      29.47S FOG
JACKSON        FOG       34  34 100 SE5       29.48F VSB 1/4 WCI  30
TRACY          FOG       38  38  98 SE6       29.47S VSB 1/2
SLAYTON        FOG       36  36 100 SE10      29.46S VSB 1
$$
MNZ065>067-074>077-082>085-091>093-210000-
   South Central Minnesota

CITY           SKY/WX    TMP DP  RH WIND       PRES   REMARKS
MANKATO        MOCLDY    35  34  96 E8        29.53S FOG     WCI  29
NEW ULM        CLOUDY    36  36 100 E7        29.51S FOG
ST JAMES       FOG       36  36 100 E6        29.51F VSB 1/4
FAIRMONT       FOG       35  35 100 E7        29.50S VSB 1/4 WCI  29
GLENCOE        FOG       36  36 100 E7        29.52F VSB 3/4
FARIBAULT      FOG       36  34  93 E6        29.56R VSB 3/4
OWATONNA       FOG       36  34  93 E6        29.54S VSB 3/4
WASECA         FOG       34  32  93 E8        29.54F VSB 1/4 WCI  27
ALBERT LEA     FOG       36  36 100 SE8       29.52S VSB 1/4
$$
MNZ078>079-086>088-094>096-210000-
   Southeast Minnesota

CITY           SKY/WX    TMP DP  RH WIND       PRES   REMARKS
ROCHESTER      FOG       34  34 100 SE7       29.56S VSB<1/4 WCI  28
RED WING       FOG       36  34  93 SE6       29.58F VSB 1/4
STANTON        CLOUDY    36  34  92 E5        29.55F FOG
DODGE CENTER   FOG       34  34 100 CALM      29.55R VSB 1/4
WINONA         CLOUDY    36  36 100 SE3       29.61S FOG
AUSTIN         FOG       34  32  93 E7        29.54S VSB<1/4 WCI  28
PRESTON        FOG       34  33  96 SE3       29.57S VSB<1/4
$$
ABBREVIATIONS USED IN REMARKS
   TC - TEMPERATURES IN CELSIUS
  WCI - WIND CHILL INDEX
   HX - HEAT INDEX
  VSB - VISIBILITY
$$



USA.gov is the U.S. government's official web portal to all federal, state and local government web resources and services.